www.pogodaiklimat.ru

Погода и климат >> Архив погоды >> Малайзия >> Бинталу


ПОГОДА в Бинталу

  • Прогноз погоды в Бинталу
  • Монитор погоды в Бинталу

АРХИВ ПОГОДЫ в Бинталу

Время (UTC), дата Ветер
(напр.,м/с)
 
Видим.   Явления Облачность Т
(С)
Тd
(С)
f
(%)
Тe
(С)
Тes
(С)
Комфортность P
(гПа)
Po
(гПа)
Тmin
(С)
Tmax
(С)
R
(мм)
R24
(мм)
S
(см)
00 12.06 ЮВ 3 30 км 9/3 <50 м
[St Ac lent Ci fib]
+27.5 +25.3 88 +40 +41 очень
душно
1010.6 1007.9 +25.4
03 12.06 В 2 30 км 9/4 420 м
[Cu hum Ac lent Ci fib]
+32.1 +27.0 75 +50 +56 опасность
перегрева
1010.7 1008.0
06 12.06 СЗ 3 30 км 9/5 480 м
[Cu med, cong Ac lent Ci fib]
+34.0 +28.3 72 +55 +59 опасность
перегрева
1008.3 1005.6
09 12.06 СЗ 3 30 км 9/1 480 м
[Cu med, cong Ac trans Ci fib]
+32.6 +27.2 73 +51 +52 опасность
перегрева
1007.0 1004.3
12 12.06 СВ 1 18 км гроза без осадков 9/3 450 м
[Cb cap Ac trans Ci fib]
+28.6 +26.5 88 +44 +44 опасность
перегрева
1008.5 1005.8 +34.1
15 12.06 Ю 1 18 км {гроза} 9/5 480 м
[Sc Ac As]
+27.5 +26.0 92 +41 +41 опасность
перегрева
1010.6 1007.9
18 12.06 СВ 1 6000 м гроза, ливневой дождь 10/6 450 м
[Cb cap As op]
+25.0 +24.5 97 +35 +35 очень
душно
1010.1 1007.4 8
21 12.06 ЮВ 2 12 км гроза, ливневой дождь 10/5 150 м
[Cb cap As op]
+24.5 +24.2 98 +34 +34 очень
душно
1009.9 1007.2
00 13.06 ЮВ 2 12 км слаб. дождь {гроза} 10/3 <50 м
[Sc As op]
+24.9 +24.1 95 +34 +35 очень
душно
1011.8 1009.1 +24.3 22
03 13.06 ЮВ 2 8000 м слаб. дождь 10/4 240 м
[Sc As op]
+25.8 +24.9 95 +37 +39 очень
душно
1012.3 1009.6
06 13.06 Ю 4 12 км слаб. ливневой дождь 9/4 420 м
[Cu hum Ac As]
+25.2 +24.3 95 +35 +38 очень
душно
1010.6 1007.9 1
09 13.06 ЮВ 1 30 км в посл. час дождь {ливн. осадки} 9/3 480 м
[Sc Ac trans Ci fib]
+25.8 +24.6 93 +36 +38 очень
душно
1008.7 1006.0
12 13.06 штиль 0 18 км 9/3 480 м
[Sc Ac trans Ci fib]
+25.3 +24.8 97 +36 +36 очень
душно
1010.7 1008.0 +28.6 0.4
15 13.06 штиль 0 18 км 9/1 480 м
[Sc Ac trans Ci fib]
+24.8 +24.3 97 +34 +34 очень
душно
1011.6 1008.9
18 13.06 штиль 0 18 км 9/3 480 м
[Sc Ac As]
+24.8 +24.1 96 +34 +34 очень
душно
1010.1 1007.4
21 13.06 ЮВ 2 18 км 9/3 480 м
[Sc Ac trans Ci fib]
+24.6 +23.8 95 +33 +33 очень
душно
1009.6 1006.9
00 14.06 В 1 30 км 9/4 480 м
[Sc Ac As]
+25.5 +24.6 95 +36 +37 очень
душно
1011.7 1009.0 +24.4 1
03 14.06 ЮВ 3 30 км 9/4 420 м
[Sc Ac trans Ci fib]
+27.7 +25.0 85 +40 +45 очень
душно
1011.8 1009.1
06 14.06 ЮВ 2 30 км 9/1 420 м
[Cu hum Ac trans Ci fib]
+30.6 +25.8 76 +46 +54 опасность
перегрева
1007.9 1005.2
09 14.06 ЮВ 2 30 км 9/3 540 м
[Cu hum Ac trans Ci fib]
+30.0 +26.5 82 +46 +48 опасность
перегрева
1006.8 1004.1
12 14.06 ЮВ 1 18 км 9/1 480 м
[Sc Ac trans Ci fib]
+27.1 +26.1 94 +41 +41 опасность
перегрева
1009.1 1006.4 +31.3
15 14.06 штиль 0 18 км 9/4 480 м
[Sc Ac trans Ci fib]
+25.9 +25.3 96 +37 +37 очень
душно
1011.0 1008.3
18 14.06 штиль 0 18 км 9/3 480 м
[Sc Ac trans Ci fib]
+25.7 +25.1 96 +37 +37 очень
душно
1010.1 1007.4
21 14.06 В 2 18 км 9/3 480 м
[Sc Ac trans Ci fib]
+25.2 +24.4 95 +35 +35 очень
душно
1009.3 1006.6
00 15.06 ЮВ 2 30 км 9/3 480 м
[Sc Ac trans Ci fib]
+26.2 +25.2 94 +38 +39 очень
душно
1010.3 1007.6 +25.1
03 15.06 ЮВ 2 30 км 9/4 420 м
[Cu hum Ac lent Ci fib]
+31.4 +27.2 78 +49 +56 опасность
перегрева
1010.1 1007.4
06 15.06 ЮВ 4 18 км гроза без осадков 9/4 450 м
[Cb cap Ac trans Ci fib]
+29.0 +26.4 86 +44 +49 опасность
перегрева
1008.9 1006.2 2
09 15.06 СЗ 2 30 км {гроза} 9/3 480 м
[Cu hum Ac trans Ci fib]
+31.9 +26.7 74 +49 +50 опасность
перегрева
1007.2 1004.5
12 15.06 штиль 0 18 км 9/1 480 м
[Sc Ac trans Ci fib]
+28.4 +26.3 88 +43 +43 опасность
перегрева
1009.0 1006.3 +33.4
15 15.06 штиль 0 18 км 9/3 480 м
[Sc Ac trans Ci fib]
+27.1 +25.8 93 +40 +40 очень
душно
1011.0 1008.3
18 15.06 штиль 0 18 км 9/1 480 м
[Sc Ac trans Cs]
+27.1 +25.4 90 +39 +39 очень
душно
1009.8 1007.1
21 15.06 В 2 18 км 9/3 150 м
[St Ac trans Cs]
+25.6 +25.1 97 +37 +37 очень
душно
1009.4 1006.7
00 16.06 В 2 30 км 9/3 450 м
[Cb cap Ac trans Ci fib]
+27.0 +25.6 92 +40 +41 очень
душно
1010.4 1007.7 +25.3 2
03 16.06 СЗ 3 30 км 9/3 420 м
[Cu hum Ac trans Ci fib]
+29.1 +25.4 80 +42 +48 опасность
перегрева
1012.0 1009.3
06 16.06 ЮЗ 2 12 км слаб. дождь 9/4 420 м
[Sc Ac As]
+27.4 +26.4 94 +42 +46 опасность
перегрева
1010.7 1008.0 5
09 16.06 ЮВ 1 30 км 9/3 420 м
[Sc Ac trans Ci fib]
+26.7 +24.8 89 +38 +39 очень
душно
1009.0 1006.3
12 16.06 ЮВ 3 18 км {дождь} 9/3 480 м
[Sc Ac As]
+24.9 +24.1 95 +34 +34 очень
душно
1010.2 1007.5 +29.9 1
15 16.06 ЮВ 2 18 км 9/3 480 м
[Sc Ac trans Ci fib]
+24.5 +23.7 95 +33 +33 очень
душно
1011.3 1008.6
18 16.06 ЮВ 1 18 км 9/3 480 м
[Sc Ac trans Ci fib]
+24.5 +23.7 95 +33 +33 очень
душно
1010.2 1007.5
21 16.06 ЮВ 2 18 км 9/4 480 м
[Sc Ac trans Ci fib]
+24.7 +23.2 91 +33 +33 очень
душно
1009.1 1006.4
00 17.06 В 2 30 км 9/3 480 м
[Sc Ac trans]
+25.1 +24.1 94 +35 +36 очень
душно
1011.2 1008.5 +24.3 4
03 17.06 З 2 30 км 9/1 420 м
[Cu hum Ac trans Ci fib]
+30.3 +24.9 73 +43 +52 опасность
перегрева
1011.7 1009.0
06 17.06 З 4 30 км 9/4 480 м
[Cu hum Ac As]
+29.8 +25.3 77 +44 +47 опасность
перегрева
1010.0 1007.3
09 17.06 С 3 30 км 9/4 480 м
[Cu med, cong Ac trans Ci fib]
+29.2 +25.0 78 +42 +43 опасность
перегрева
1009.1 1006.4
12 17.06 В 2 18 км 9/1 480 м
[Sc Ac trans Ci fib]
+26.1 +24.4 90 +36 +36 очень
душно
1010.8 1008.1 +30.9
15 17.06 В 2 18 км 9/3 480 м
[Sc Ac trans Ci fib]
+25.3 +24.1 93 +35 +35 очень
душно
1011.9 1009.2
18 17.06 В 2 18 км 9/3 480 м
[Sc Ac trans Ci fib]
+24.7 +23.9 95 +34 +34 очень
душно
1010.7 1008.0
21 17.06 В 2 18 км 9/4 480 м
[Sc Ac As]
+24.6 +23.9 96 +34 +34 очень
душно
1010.5 1007.8
00 18.06 штиль 0 30 км 9/1 420 м
[Cu hum Ac trans Ci fib]
+25.3 +24.4 95 +35 +38 очень
душно
1010.9 1008.2 +24.3
03 18.06 В 2 30 км 9/4 420 м
[Cu hum Ac trans Ci fib]
+31.0 +24.4 68 +43 +50 опасность
перегрева
1011.1 1008.4
06 18.06 СЗ 2 30 км 9/4 450 м
[Cb cap Ac lent Ci fib]
+32.9 +24.2 60 +45 +51 опасность
перегрева
1009.1 1006.4
09 18.06 СЗ 4 30 км 9/1 450 м
[Cb cap Ac trans Ci ing]
+32.3 +24.8 65 +46 +47 опасность
перегрева
1008.1 1005.4
12 18.06 штиль 0 18 км 8/1 480 м
[Cu hum Ac lent Ci fib]
+27.2 +25.1 88 +39 +39 очень
душно
1009.7 1007.0 +33.9
15 18.06 штиль 0 18 км 9/3 480 м
[Sc Ac trans Ci fib]
+25.9 +24.6 93 +37 +37 очень
душно
1010.5 1007.8
18 18.06 штиль 0 18 км 9/3 480 м
[Sc Ac trans Ci fib]
+25.2 +24.2 94 +35 +35 очень
душно
1009.3 1006.6
21 18.06 штиль 0 18 км 9/1 480 м
[Sc Ac trans Ci fib]
+24.9 +24.0 95 +34 +34 очень
душно
1009.5 1006.8

 

Местоположение метеостанции Бинталу (Малайзия): широта 3.20 долгота 113.03 высота над уровнем моря 5 м.

В архиве по умолчанию представлена погода в Бинталу за последнюю неделю. Архивные данные за месяц целиком и за предыдущие месяцы, начиная с января 2011 года, Вы можете получить, выбрав интересующий диапазон дат из раскрывающегося списка и нажав кнопку "Ввод!".


*Определитесь, кто Вы:
робот инопланетянин человек

Внимание! Время в таблицах - всемирное. Для получения местного времени необходимо прибавить поправку, которая равна 8 ч.

Смотрите также архив погоды в соседних городах и на ближайших метеорологических станциях:

Погода в Мири (Малайзия) (164 км)
Погода в Сибу (Малайзия) (165 км)
Погода на Путусиббау (Индонезия) (263 км)
Погода в Бруней аэропорту (Бруней) (285 км)
Погода в Лонгбаване (Индонезия) (300 км)
Погода в Лабуане (Малайзия) (339 км)
Погода в Кучинге (Малайзия) (356 км)
Погода в Синтанге (Индонезия) (381 км)
Погода в Нангапинохе (Индонезия) (419 км)
Погода в Парохе (Индонезия) (444 км)

Пояснения к столбцам:

Ветер - указаны скорость ветра в м/с - средняя за 10 мин, порывы в срок и между сроками (в фигурных скобках) и направление, откуда дует ветер: С - северный, СВ - северо-восточный, В - восточный, ЮВ - юго-восточный, Ю - южный, ЮЗ - юго-западный, З - западный, СЗ - северо-западный.
Видимость - горизонтальная дальность видимости в метрах или километрах. При видимости от 1 до 10 км при отсутствии осадков обычно наблюдается дымка, при ухудшении видимости до 1 км и менее - туман. В сухую погоду видимость может ухудшаться дымом, пылью или мглою.
Явления - указаны атмосферные явления, наблюдавшиеся в срок или в последний час перед сроком; фигурными скобками обозначены явления, наблюдавшиеся между сроками (за 1-3 часа до срока); квадратными скобками обозначены град или гололедные отложения с указанием их диаметра в мм.
Облачность - указаны через наклонную черту общая и нижняя облачность в баллах и высота нижней границы облаков в метрах; квадратными скобками обозначены формы облаков: Ci - перистые, Cs - перисто-слоистые, Cc - перисто-кучевые, Ac - высококучевые, As - высокослоистые, Sc - слоисто-кучевые, Ns - слоисто-дождевые, Cu - кучевые, Cb - кучево-дождевые. Подробнее классификацию облаков см. в Атласе облаков (PDF).
T - Температура воздуха - температура, измеренная на высоте 2 м над землей.
Td - Температура точки росы - температура, при понижении до которой содержащийся в воздухе водяной пар достигнет насыщения.
f - Относительная влажность воздуха - влажноcть воздуха, измеренная на высоте 2 м над землей.
Te - Эффективная температура - температура, которую ощущает одетый по сезону человек в тени. Характеристика душности погоды. При расчете учитывается влияние влажности воздуха и скорости ветра на теплоощущения человека.
Tes - Эффективная температура на солнце - температура, которую ощущает человек, с поправкой на солнечный нагрев. Характеристика знойности погоды. Зависит от высоты солнца над горизонтом, облачности и скорости ветра. Ночью, в пасмурную погоду, а также при ветре 12 м/с и более поправка равна нулю.
P - Атмосферное давление - приведенное к уровню моря атмосферное давление.
Po - Атмосферное давление - измеренное на уровне метеостанции атмосферное давление.
Tmin - Минимальная температура - минимум температуры воздуха на высоте 2 м над землей.
Tmax - Максимальная температура - максимум температуры воздуха на высоте 2 м над землей.
R - Количество осадков - Количество выпавших осадков за период времени, мм. При наведении курсора мыши на число - период времени, за который выпало указанное количество осадков.
R24 - Количество осадков - Количество выпавших осадков за 24 часа, мм.
S - Снежный покров - Высота снежного покрова, см. При наведении курсора мыши на число - состояние снежного покрова и степень покрытия местности в баллах.